Regional Weather Roundup
Issued by NWS Northern Indiana

Home | Current Version | Previous Version | Text Only | Print | Product List | Glossary On
Versions: 1 2 3 4 5 6 7 8 9 10 11 12 13 14 15 16 17 18 19 20 21 22 23 24 25 26 27 28 29 30 31 32 33 34 35 36 37 38 39 40 41 42 43 44 45 46 47 48 49 50
000
ASUS43 KIWX 261800
RWRIWX

KIWX WEATHER ROUNDUP
NATIONAL WEATHER SERVICE NORTHERN INDIANA
100 PM EST SUN FEB 26 2017

NOTE: "FAIR" INDICATES FEW OR NO CLOUDS BELOW 12,000 FEET WITH NO
SIGNIFICANT WEATHER AND/OR OBSTRUCTIONS TO VISIBILITY.

* THESE STATIONS ARE NOT UNDER NWS QUALITY CONTROL. THEY ALSO MAY NOT
  REPORT WEATHER SUCH AS PRECIPITATION OR FOG.

INZ001>027-261900-
NORTHERN INDIANA

CITY           SKY/WX    TMP DP  RH WIND       PRES   REMARKS
GARY*          MOSUNNY   43  14  31 S17G29    30.01F
KNOX*          MOSUNNY   41  -8  12 SW20G31   30.04F
SOUTH BEND     CLOUDY    39  18  42 SW21G30   30.02F
6HR MIN TEMP:  19; 6HR MAX TEMP:  39;

ELKHART*       SUNNY     37  19  48 S15G24    30.03F
GOSHEN         SUNNY     40  18  41 S16G26    30.04F
6HR MIN TEMP:  21; 6HR MAX TEMP:  40;

ANGOLA*        SUNNY     37  21  52 S17       30.04F
FORT WAYNE     MOSUNNY   38  22  52 S16       30.10F
6HR MIN TEMP:  20; 6HR MAX TEMP:  38;

PERU/GRISSOM   SUNNY     40  23  50 S18G24    30.08F
6HR MIN TEMP:  20; 6HR MAX TEMP:  40;


$$
INZ028>050-261900-
CENTRAL INDIANA

CITY           SKY/WX    TMP DP  RH WIND       PRES   REMARKS
LAFAYETTE      SUNNY     41  19  41 S14G26    30.10F
6HR MIN TEMP:  18; 6HR MAX TEMP:  41;

KOKOMO*        SUNNY     39  22  50 S21       30.11F
6HR MIN TEMP:  18; 6HR MAX TEMP:  39;

MUNCIE*        SUNNY     40  18  41 SW16G25   30.12F
6HR MIN TEMP:  21; 6HR MAX TEMP:  40;

INDIANAPOLIS   MOSUNNY   42  14  32 S15       30.13F
6HR MIN TEMP:  20; 6HR MAX TEMP:  42;


$$
MIZ043>046-050>051-056>058-064>065-071>073-077>080-261900-
SOUTHWEST LOWER MICHIGAN

CITY           SKY/WX    TMP DP  RH WIND       PRES   REMARKS
BATTLE CREEK   CLOUDY    35  21  56 S16       30.00F WCI  25
6HR MIN TEMP:  18; 6HR MAX TEMP:  35;

BENTON HARBOR  CLOUDY    40  19  43 S14G26    29.97F
6HR MIN TEMP:  23; 6HR MAX TEMP:  40;

COLDWATER*     PTSUNNY   37  17  44 SW15G23   30.03F
6HR MIN TEMP:  20; 6HR MAX TEMP:  37;

HILLSDALE*     PTSUNNY   34  21  60 SW14G20   30.03F WCI  24
HOLLAND        CLOUDY    36  21  54 S22G29    29.94F
6HR MIN TEMP:  23; 6HR MAX TEMP:  36;

GRAND RAPIDS   FLURRIES  33  21  61 S18G31    29.95  WCI  22
6HR MIN TEMP:  20; 6HR MAX TEMP:  34; 6HR PCP: TRACE;

KALAMAZOO      CLOUDY    36  20  52 S21       30.00F
6HR MIN TEMP:  23; 6HR MAX TEMP:  36;

STURGIS*       SUNNY     37  22  54 SW20G25   30.02F
6HR MIN TEMP:  20; 6HR MAX TEMP:  37;

THREE RIVERS*  FAIR      38  22  52 SW18      30.02F
6HR MIN TEMP:  19; 6HR MAX TEMP:  38;


$$
OHZ001>008-015>018-024>025-261900-
NORTHWEST OHIO

CITY           SKY/WX    TMP DP  RH WIND       PRES   REMARKS
DEFIANCE       SUNNY     35  20  54 SW16G24   30.11F WCI  25
6HR MIN TEMP:  21; 6HR MAX TEMP:  35;

FINDLAY        SUNNY     39  20  46 S15       30.11F
6HR MIN TEMP:  23; 6HR MAX TEMP:  39;

TOLEDO EXPRESS SUNNY     36  19  50 SW12G26   30.10F
6HR MIN TEMP:  21; 6HR MAX TEMP:  36;

TOLEDO METCALF SUNNY     38  20  48 SW17G25   30.11F
6HR MIN TEMP:  22; 6HR MAX TEMP:  38;

LIMA           SUNNY     37  21  52 S13G21    30.12F
6HR MIN TEMP:  21; 6HR MAX TEMP:  37;


$$
AND FOR LAKE MICHIGAN COASTAL AND OPEN LAKE BUOY OBSERVATIONS

STATION/POSITION TEMP    WIND        PRES    VSBY  WAVE
                 AIR SEA DIR/SP/G                  HT/PER
                 (F)     (DEG/KT/KT) (MB)    (MI)  (FT/S)
CALUMET HARBOR    41     190/ 17/ 22 1014.8F
MICHIGAN CITY     38     170/ 27/ 31   N/A
BURNS HARBOR      40     210/ 23/ 31 1015.9F
SAINT JOSEPH      35     180/  7/ 14 1016.3

$$
&&



USA.gov is the U.S. government's official web portal to all federal, state and local government web resources and services.